Weather Roundup
Issued by NWS

Home | Current Version | Previous Version | Graphics & Text | Print | Product List | Glossary Off
Versions: 1 2 3 4 5 6 7 8 9 10 11 12 13 14 15 16 17 18 19 20 21 22 23 24 25 26 27 28 29 30 31 32 33 34 35 36 37 38 39 40 41 42 43 44 45 46 47 48 49 50

000
NZUS93 KARX 041210
HRRWXR

CURRENT HOURLY OBSERVATIONS ACROSS
MUCH OF THE UPPER MISSISSIPPI VALLEY
NATIONAL WEATHER SERVICE LA CROSSE WI
600 AM CST WED MAR 04 2015


...SOUTHEAST MINNESOTA...


CITY           SKY/WX    TMP DP  RH WIND       PRES   REMARKS
ROCHESTER      CLEAR      0  -7  72 NW15      30.09R WCI -19
ROCHESTER/MAYO FAIR       1  -6  71 W13       30.11R WCI -16
WINONA         CLEAR      5  -4  66 W10       30.15R WCI -10
AUSTIN         CLEAR      1  -6  71 NW13      30.12R WCI -16
ALBERT LEA     CLEAR      1  -6  71 NW8       30.13R WCI -12
DODGE CENTER   PTCLDY     0  -6  78 W12       30.10R WCI -18
PRESTON        PTCLDY     1  -6  75 NW14      30.10R WCI -18
OWATONNA       CLEAR      0  -8  71 W8        30.13R WCI -15
FARIBAULT      CLEAR      0  -8  71 W7        30.14R WCI -13
$$

...ELSEWHERE IN MINNESOTA...


CITY           SKY/WX    TMP DP  RH WIND       PRES   REMARKS
MINNEAPOLIS    FAIR       0  -9  65 W9        30.15R WCI -15
INTNL FALLS    CLEAR    -15 -20  78 W7        29.97R WCI -31
DULUTH         PTCLDY    -7 -13  75 W10       29.94R WCI -25
RED WING       CLEAR      0  -9  65 W8        30.13R WCI -15
REDWOOD FALLS  CLEAR     -2  -9  72 SW8       30.17R WCI -17
MANKATO        CLEAR      1  -8  66 W10       30.15R WCI -14
FAIRMONT       PTCLDY     1  -8  66 W8        30.15R WCI -12
$$

...SOUTHWEST WISCONSIN...


CITY           SKY/WX    TMP DP  RH WIND       PRES   REMARKS
LA CROSSE      CLEAR      6  -3  66 W8        30.12R WCI  -7
PRAIRIE DU CHI MOCLDY     8  -3  59 W9        30.14R WCI  -5
BOSCOBEL       CLEAR      9  -2  61 W8        30.12R WCI  -3
LONE ROCK      PTCLDY    10  -1  61 W12       30.09R WCI  -5
PLATTEVILLE    CLEAR      8   1  75 W8        30.07R WCI  -5
FORT MC COY    CLEAR      6  -3  66 NW7       30.09R WCI  -6
CAMP DOUGLAS   PTCLDY     5  -3  68 W12       30.06R WCI -11
VIROQUA        FAIR       5  -2  73 NW10      30.04R WCI -10
WIS DELLS      PTCLDY     8  -3  61 NW6       30.04R WCI  -2
$$

...ELSEWHERE IN WISCONSIN...


CITY           SKY/WX    TMP DP  RH WIND       PRES   REMARKS
MILWAUKEE      MOCLDY    16   3  56 NW16      30.01R WCI   1
MADISON        MOCLDY    11   3  70 W6        30.04R WCI   1
GREEN BAY      PTCLDY    11   1  64 W13       29.96R WCI  -4
EAU CLAIRE     CLEAR      0  -9  65 W10       30.08R WCI -16
BLACK RVR FLS  FAIR       4  -6  63 W6        30.08R WCI  -7
MEDFORD        CLEAR     -2  -9  71 W7        29.95R WCI -16
WAUSAU         CLEAR      1  -7  68 NW9       29.95R WCI -14
WIS RAPIDS     CLEAR      4  -6  63 NW10G20   30.03R WCI -11
MARSHFIELD     CLEAR      2  -7  66 NW14      29.99R WCI -16
RICE LAKE      CLEAR     -4 -10  77 W6        30.06R WCI -16
$$

...NORTHEAST IOWA...


CITY           SKY/WX    TMP DP  RH WIND       PRES   REMARKS
DECORAH        MOCLDY     5  -6  61 NW12G20   30.10R WCI -11
MASON CITY     CLEAR      4  -5  66 NW15      30.16R WCI -14
CHARLES CITY   CLOUDY     5  -4  66 NW12      30.15R WCI -11
OELWEIN        CLOUDY     5  -2  72 NW17      30.14R WCI -14
$$

...ELSEWHERE IN IOWA...


CITY           SKY/WX    TMP DP  RH WIND       PRES   REMARKS
DES MOINES     PTCLDY    13   0  56 NW9       30.23R WCI   1
IOWA CITY      CLOUDY    11   2  67 NW14      30.17R WCI  -5
FORT DODGE     PTCLDY     9  -6  52 NW6       30.20R WCI  -1
$$

...NORTHERN ILLINOIS...


CITY           SKY/WX    TMP DP  RH WIND       PRES   REMARKS
CHICAGO-OHARE  PTCLDY    18  12  77 NW14      30.00R WCI   4
CHICAGO-MIDWAY MOCLDY    22  14  71 NW10      30.00R WCI  11
MOLINE         MOCLDY    11   1  64 NW16      30.12S WCI  -6
ROCKFORD       MOCLDY    11   4  73 NW13      30.07R WCI  -4
PEORIA         PTCLDY    14   3  61 VRB7G16   30.11R WCI   4
$$

NOTE: "FAIR" INDICATES FEW OR NO CLOUDS BELOW 12,000 FEET WITH NO
SIGNIFICANT WEATHER AND/OR OBSTRUCTIONS TO VISIBILITY. WIND
SPEEDS ARE IN MILES-PER-HOUR.



USA.gov is the U.S. government's official web portal to all federal, state and local government web resources and services.